AirNav   Duncan Aviation - Near you to keep you flying
 
 907 users online  

VA46 Timber Ridge Airpark
Gore, Virginia, USA

GOING TO GORE?


FAA INFORMATION EFFECTIVE 02 DECEMBER 2021

Location

FAA Identifier: VA46
Lat/Long: 39-17-46.3640N 078-21-44.0210W
39-17.772733N 078-21.733683W
39.2962122,-78.3622281
(estimated)
Elevation: 1024 ft. / 312.1 m (surveyed)
Variation: 08W (1985)
From city: 3 miles NW of GORE, VA
Time zone: UTC -5 (UTC -4 during Daylight Saving Time)
Zip code: 22637

Airport Operations

Airport use: Private use. Permission required prior to landing
Activation date: 10/1961
Control tower: no
ARTCC: WASHINGTON CENTER
FSS: LEESBURG FLIGHT SERVICE STATION
Attendance: UNATNDD
Wind indicator: no
Segmented circle: no

Airport Communications

WX AWOS-3 at OKV (14 nm SE): 124.85 (540-662-6970)
WX ASOS at MRB (19 nm E): 119.925 (304-264-0988)

Nearby radio navigation aids

VOR radial/distance  VOR name  Freq  Var
MRBr264/24.4MARTINSBURG VORTAC112.1007W
LDNr351/27.5LINDEN VORTAC114.3006W
ESLr088/29.4KESSEL VOR/DME110.8006W
HGRr231/(33.6)HAGERSTOWN VOR109.8007W

 
NDB name  Hdg/Dist  Freq  Var  ID
CAVERNS017/36.224509WLUA .-.. ..- .-

Airport Services

Airframe service: NONE
Powerplant service: NONE

Runway Information

Runway 9/27

Dimensions: 2700 x 80 ft. / 823 x 24 m
Surface: gravel
RWY SFC IS COMPACTED SHALE.
RUNWAY 9  RUNWAY 27
Traffic pattern: leftleft

Airport Ownership and Management from official FAA records

Ownership: Privately-owned
Owner: THE LORD'S CHAPEL, INC
411 THREE OAKS DRIVE
GORE, VA 22637
Phone 540-858-3312
Manager: REV. SUE A. ADAMS
411 THREE OAKS DRIVE
GORE, VA 22637
Phone 540-858-3312

Additional Remarks

FOR CD CTC POTOMAC APCH AT 866-709-4993.

Instrument Procedures

There are no published instrument procedures at VA46.

Some nearby airports with instrument procedures:

KOKV - Winchester Regional Airport (14 nm SE)
KMRB - Eastern WV Regional Airport/Shepherd Field (19 nm E)
KFRR - Front Royal-Warren County Airport (23 nm S)
W35 - Potomac Airpark (25 nm N)
9VA5 - Bluegrass Heliport (26 nm SE)
 
Loc | Ops | Rwys | IFR | FBO | Links
Com | Nav | Svcs | Stats | Notes
Area around VA46 (Timber Ridge Airpark)
 
Road maps at: MapQuest Bing Google
 
Aerial photo
WARNING: Photo may not be current or correct
Aerial photo of VA46 (Timber Ridge Airpark)
Photo by Steve Beste
Photo taken 25-Jul-2020
looking west.

Do you have a better or more recent aerial photo of Timber Ridge Airpark that you would like to share? If so, please send us your photo.

 
Sectional chart

 
Airport distance calculator
Flying to Timber Ridge Airpark? Find the distance to fly.

From to VA46

Sunrise and sunset
Times for 07-Dec-2021
 Local
(UTC-5)
 Zulu
(UTC)
Morning civil twilight06:5111:51
Sunrise07:2112:21
Sunset16:4921:49
Evening civil twilight17:1922:19

Current date and time
Zulu (UTC)  08-Dec-2021 02:09:46
Local (UTC-5)  07-Dec-2021 21:09:46
 
METAR
KOKV 
14nm SE 
080155Z AUTO 00000KT 10SM CLR 00/M07 A3014 RMK AO2
KMRB 
19nm E 
080153Z 00000KT 10SM SCT090 01/M09 A3016 RMK AO2 SLP218 T00111094
KFRR 
23nm S 
080155Z AUTO 00000KT 10SM CLR 00/M06 A3014 RMK AO1
KCBE 
27nm NW 
080155Z AUTO 36006KT 10SM CLR M01/M09 A3020 RMK AO2 T10061085
TAF
KMRB 
19nm E 
071730Z 0718/0818 27004KT P6SM OVC250 FM072100 00000KT P6SM OVC250 FM081500 16003KT P6SM OVC080
NOTAMs
Click for the latest NOTAMs
NOTAMs are issued by the DoD/FAA and will open in a separate window not controlled by AirNav.

 

 
 

Would you like to see your business listed on this page?

 If your business provides an interesting product or service to pilots, flight crews, aircraft, or users of the Timber Ridge Airpark, you should consider listing it here.  To start the listing process, click on the button below
 
Add a business
 

Other Pages about Timber Ridge Airpark

Update a link
 
Copyright © AirNav, LLC. All rights reserved. Privacy Policy  Contact